Regional Weather Roundup
Issued by NWS Charleston, WV

Home | Current Version | Previous Version | Graphics & Text | Print | Product List | Glossary On
Versions: 1 2 3 4 5 6 7 8 9 10 11 12 13 14 15 16 17 18 19 20 21 22 23 24 25 26 27 28 29 30 31 32 33 34 35 36 37 38 39 40 41 42 43 44 45 46 47 48
000
ASUS41 KRLX 190210
RWRRLX
West Virginia Regional Weather Roundup
National Weather Service Charleston WV
900 PM EST SAT NOV 18 2017

Note: "fair" indicates few or no clouds below 12,000 feet with no
significant weather and/or obstructions to visibility.

WVZ003-190300-
Northern Panhandle of West Virginia

CITY           SKY/WX    TMP DP  RH WIND       PRES   REMARKS
WHEELING       LGT RAIN  57  54  89 S15G25    29.22F
$$

WVZ009-190300-
Northwest West Virginia

CITY           SKY/WX    TMP DP  RH WIND       PRES   REMARKS
PARKERSBURG    LGT RAIN  59  56  89 S15G24    29.28F
$$

WVZ006-190300-
Western West Virginia

CITY           SKY/WX    TMP DP  RH WIND       PRES   REMARKS
HUNTINGTON     RAIN      61  57  87 SW15G25   29.35R FOG
$$

WVZ015-190300-
West Central West Virginia

CITY           SKY/WX    TMP DP  RH WIND       PRES   REMARKS
CHARLESTON     LGT RAIN  62  54  74 S16G23    29.33F
$$

WVZ022-031-190300-
North Central West Virginia

CITY           SKY/WX    TMP DP  RH WIND       PRES   REMARKS
CLARKSBURG     LGT RAIN  62  52  69 SW22G30   29.32F
MORGANTOWN     LGT RAIN  63  52  67 SW14G28   29.30S
$$

WVZ025-035-042-045-190300-
Southern West Virginia

CITY           SKY/WX    TMP DP  RH WIND       PRES   REMARKS
BECKLEY        LGT RAIN  59  49  69 SW17G31   29.45F
LOGAN          LGT RAIN  59  55  88 S13G28    29.38F
BLUEFIELD      CLOUDY    54  45  71 S15G24    29.51F
LEWISBURG      CLOUDY    56  47  70 S8        29.51F
$$

WVZ047-190300-
Northern Mountains of West Virginia

CITY           SKY/WX    TMP DP  RH WIND       PRES   REMARKS
ELKINS         CLOUDY    60  48  64 S18G29    29.39F
$$

WVZ052-190300-
Eastern Panhandle of West Virginia

CITY           SKY/WX    TMP DP  RH WIND       PRES   REMARKS
MARTINSBURG    CLOUDY    40  39  97 S3        29.40F FOG
PETERSBURG     DRIZZLE   40  37  86 CALM      29.39F
$$




USA.gov is the U.S. government's official web portal to all federal, state and local government web resources and services.